Home > Weather > Brantford > Past weeks

Flag for Canada Weather for the Past 2 Weeks in Brantford, Ontario, Canada

Now
48 °F

Low clouds.


Feels Like: 42 °F
Forecast: 44 / 60 °F
Wind: 16 mph from Northeast

Location: Hamilton Airport

Current Time: May 5, 2016 at 7:35:03 AM

Latest Report: May 5, 2016 at 7:00 AM


Visibility: 10 mi

Pressure: 29.79 "Hg

Humidity: 87%

Dew Point: 45 °F

Location of BrantfordLocation

Historic Weather in Brantford — Graph

°F

Brantford Temperature Yesterday

Maximum temperature yesterday: 59 °F (at 11:00 AM)
Minimum temperature yesterday: 39 °F (at 3:00 AM)
Average temperature yesterday: 49 °F

High & Low Weather Summary for the Past Weeks

 TemperatureHumidityPressure
High70 °F (Apr 22, 2:00 PM)100% (Apr 22, 7:00 AM)30.36 "Hg (Apr 22, 7:00 AM)
Low30 °F (Apr 27, 1:00 AM)26% (Apr 23, 6:00 PM)29.69 "Hg (May 4, 4:00 PM)
Average45 °F69%30.00 "Hg
* Reported Apr 20 6:00 AM — May 5 6:00 AM, Brantford, Weather by CustomWeather, © 2016

Note: Actual official high and low records may vary slightly from our data, if they occured in-between our weather recording intervals... More about our weather records

Advertising

Brantford Weather History for the Previous 24 Hours

Scroll right to see more
 ConditionsComfort  
Time TempWeatherWind HumidityBarometerVisibility
6:00 AM
Thu, May 5
48 °FOvercast.20 mph87%29.78 "Hg7 mi
5:00 AM46 °FPassing clouds.16 mph87%29.76 "Hg7 mi
4:00 AM46 °FLow clouds.17 mph93%29.75 "Hg7 mi
3:00 AM46 °FPassing clouds.20 mph93%29.74 "Hg7 mi
2:00 AM45 °FPassing clouds.12 mph93%29.75 "Hg7 mi
1:00 AM43 °FPassing clouds.10 mph93%29.75 "Hg7 mi
12:00 AM45 °FPassing clouds.13 mph87%29.75 "Hg7 mi
11:00 PM
Wed, May 4
45 °FPassing clouds.13 mph87%29.74 "Hg7 mi
10:00 PM45 °FPassing clouds.13 mph87%29.74 "Hg7 mi
9:00 PM46 °FScattered clouds.14 mph87%29.72 "Hg7 mi
8:00 PM50 °FPartly sunny.12 mph71%29.72 "Hg15 mi
7:00 PM52 °FPartly sunny.14 mph62%29.71 "Hg15 mi
6:00 PM54 °FPartly sunny.14 mph63%29.70 "Hg15 mi
5:00 PM55 °FPartly sunny.15 mph59%29.69 "Hg12 mi
4:00 PM57 °FBroken clouds.15 mph59%29.69 "Hg10 mi
3:00 PM57 °FBroken clouds.16 mph63%29.70 "Hg10 mi
2:00 PM55 °FBroken clouds.14 mph63%29.70 "Hg15 mi
1:00 PM59 °FPartly sunny.13 mph59%29.70 "Hg15 mi
12:00 PM59 °FBroken clouds.9 mph51%29.71 "Hg15 mi
11:00 AM59 °FPartly sunny.10 mph59%29.72 "Hg15 mi
10:00 AM54 °FPartly sunny.9 mph67%29.72 "Hg15 mi
9:00 AM52 °FBroken clouds.6 mph72%29.73 "Hg15 mi
8:00 AM46 °FPartly sunny.5 mph82%29.74 "Hg15 mi
7:00 AM39 °FPassing clouds.3 mph100%29.73 "Hg10 mi
Weather by CustomWeather, © 2016

See weather overviewHow to use our weather pages